User: anonymous   Login
Location: Unspecified
(0.0000°N, 0.0000°E)
Time: 10:34:02
(UTC+00:00)
Language:

ATEX - Orbit

View from above orbital plane
View from above orbital plane
View from above satellite
View from above satellite

Ground track
Ground track

The orbit data is extracted from the following two-line orbital elements,

1 25615U 98055C   18222.89594976 0.00000060  00000-0  17209-4 0    00
2 25615  84.9861 265.8889 0009000 212.2185 147.7813 14.45021266    05
Epoch (UTC): 10 August 2018 21:30:10
Eccentricity: 0.0009000
inclination: 84.9861°
perigee height: 735 km
apogee height: 748 km
right ascension of ascending node: 265.8889°
argument of perigee: 212.2185°
revolutions per day: 14.45021266
mean anomaly at epoch: 147.7813°
orbit number at epoch: 0

The dashed part of the orbit path shows where the satellite is in the earth's shadow,  

DLR